Погода в Нижнем Жириме

Россия / Республика Бурятия     51°25′25″N   107°11′54″E
темп.,
°C
ветер,
м/с
пор.,
м/с
влажн.,
%
обл.,
%
осадки,
мм/ч
давл.,
гПа
погр.,
м
8 мая, сб
сб823:00+2сз117177 0.0 101410
02:000с00825 0.0 101410
05:00−1в11855 0.0 101410
08:00+4з015861 0.0 1013381
11:00+9зюз4442100 0.0 10111294
14:00+11зюз33375 0.0 10101569
17:00+12зюз543610 0.0 10091672
20:00+7ссз33475 0.0 101144
9 мая, вс
вс923:00+4зюз22795 0.0 101315
02:00+3юз228698 0.0 101313
05:00+3юз2287100 0.0 101315
08:00+7юз236853 0.0 1012331
11:00+12юз554426 0.0 10091610
14:00+14з4538100 0.0 10072123
17:00+15сз143589 0.0 10052160
20:00+12з2247100 0.0 100613
10 мая, пн
пн1023:00+7з2377100 0.0 100969
02:00+6з3381100 0.3 1010459
05:00+5з1285100 0.3 101054
08:00+6сз2373100 0.6 1010719
11:00+8ссз3452100 0.1 10101604
14:00+9сз4451100 0.3 10111493
17:00+8зсз665397 0.1 10121377
20:00+5зсз466566 0.2 1013657
11 мая, вт
вт1123:00+2з238510 0.0 101547
02:00+2з348695 0.0 101472
05:00+3з5883100 0.0 1014603
08:00+4зсз248597 0.6 1014510
11:00+9ссз366059 0.0 10141178
14:00+12сз564344 0.0 10131872
17:00+11сз574661 0.0 10131815
20:00+7зсз476817 0.0 1015356
12 мая, ср
ср1223:00+4зюз22855 0.0 101611
02:00+3юз22864 0.0 101518
05:00+2ююз22851 0.0 101510
08:00+7юз23560 0.0 1013366
11:00+12юз44384 0.0 10101481
14:00+15з353118 0.0 10072116
17:00+16зсз343096 0.0 10052378
20:00+11с354899 0.0 1007105